Wind_Speed
6 5 4 3 1 1 1 1 2 3 4 5 5 6 6 4 5 6 7 7 7 7 10 11 11 11 11 11 11 11 10 10 11 12 12 12 13 13 13 13 13 11 8 5 4 8 11 13 14 13 15 18 19 19 17 16 14 14 14 14 16 17 17 18 19 19 19 19 18 17 16 14 13 13 13 13 12 12 11 11 10 9 9 7 6
5 4 4 3 2 1 1 2 2 2 4 4 5 6 5 5 6 6 6 6 6 7 9 10 11 11 11 10 10 10 8 9 10 11 13 13 14 14 13 13 14 14 12 8 4 6 9 11 13 14 15 18 18 19 19 17 15 14 14 14 14 15 15 16 17 18 18 18 19 17 16 14 14 14 13 13 13 12 12 11 11 10 9 8 7
4 4 4 4 3 2 2 2 2 2 3 4 5 5 5 6 6 5 5 5 6 7 8 9 10 10 10 9 9 8 7 8 9 11 13 15 15 15 14 14 15 15 13 10 6 5 6 8 11 13 15 18 19 19 19 19 17 15 15 15 15 16 16 16 16 16 16 17 18 18 16 15 15 14 13 13 13 13 12 12 12 11 11 9 8
4 4 4 4 3 3 3 3 2 2 3 4 5 6 6 6 5 5 4 5 6 7 8 9 9 9 9 8 8 8 7 7 8 9 13 15 16 16 15 14 16 16 15 12 8 4 5 7 9 12 14 16 18 19 19 19 17 16 16 16 17 17 17 17 17 16 15 15 16 16 16 15 14 14 13 13 13 13 13 13 12 12 11 10 9
5 5 5 5 4 4 4 4 2 2 3 4 5 6 5 5 5 4 4 5 7 8 8 8 7 8 7 7 8 8 7 7 8 9 11 14 15 16 16 16 17 18 17 14 11 5 3 7 7 9 12 14 16 17 18 18 17 17 18 18 17 16 16 15 16 15 15 15 15 15 14 14 13 12 12 12 12 13 13 13 13 12 11 10 9
5 5 6 6 5 5 5 4 2 1 2 3 5 5 5 5 5 4 5 6 7 7 7 7 6 6 6 6 8 8 7 8 8 9 10 12 15 16 17 16 18 18 18 16 13 9 3 4 5 7 11 13 14 15 16 17 18 18 19 18 17 16 15 14 14 14 13 14 14 13 13 13 12 11 10 10 11 12 12 12 12 12 11 11 10
6 6 6 6 6 6 6 5 3 2 2 3 5 5 5 5 4 4 5 6 6 6 7 6 6 6 6 6 7 7 7 8 9 10 10 12 15 16 17 17 18 18 17 16 14 12 8 2 2 5 9 11 11 13 14 16 18 19 18 17 17 16 16 15 14 13 12 12 12 12 12 12 12 10 10 10 10 11 11 11 11 12 11 10 9
6 6 6 7 7 7 6 5 3 2 2 3 5 5 4 5 5 5 5 6 5 5 6 6 5 6 6 5 6 7 7 8 9 10 10 13 15 15 16 17 18 19 18 17 15 14 12 9 5 6 8 8 8 9 12 13 16 19 18 16 16 16 15 14 13 12 12 12 11 11 11 12 12 11 11 11 10 10 10 11 11 11 11 10 8
6 6 7 7 7 7 7 5 4 3 2 3 4 4 4 5 5 6 5 5 4 4 6 5 5 5 5 5 5 6 6 7 10 10 10 13 15 15 16 17 18 19 19 18 17 16 15 13 10 7 7 7 7 8 10 11 13 17 18 16 15 15 13 13 13 13 13 12 11 11 11 12 13 12 11 11 10 9 10 10 11 11 10 8 7
7 7 7 8 8 8 7 5 5 4 2 1 2 3 4 5 5 6 6 5 3 3 4 5 4 5 5 4 5 6 5 7 9 9 10 13 14 14 15 17 18 18 19 19 18 17 15 14 13 11 10 10 9 9 10 9 10 13 16 16 14 14 13 13 14 14 13 12 11 11 12 13 13 11 10 10 9 9 9 10 10 10 8 7 6
8 7 8 9 9 8 7 7 7 5 3 2 2 3 4 5 6 7 6 5 3 2 3 4 4 5 5 4 5 6 6 7 8 8 8 10 11 12 14 16 17 18 19 19 18 17 16 15 13 12 11 11 11 11 10 9 10 12 14 14 12 12 12 12 13 13 12 12 11 11 12 12 11 9 9 9 9 9 9 8 8 8 7 6 5
9 8 9 9 10 10 9 8 8 6 3 2 3 3 4 5 6 6 6 5 3 2 3 4 4 4 4 3 4 5 7 9 9 8 9 10 10 11 14 15 16 17 18 18 18 19 19 17 15 14 12 11 9 9 8 9 10 11 11 11 9 10 11 12 12 11 10 10 10 11 11 10 9 9 8 8 8 8 8 7 7 7 6 5 5
10 10 10 10 11 11 10 10 9 7 5 3 3 3 5 5 5 6 5 5 4 3 3 4 4 4 3 2 4 5 7 9 10 9 10 11 11 12 14 14 14 16 17 17 19 21 21 20 18 17 15 13 10 8 7 7 7 7 7 7 8 9 10 11 11 11 10 10 9 10 10 9 8 8 8 8 7 7 7 7 6 6 5 4 4
11 11 11 11 12 12 11 10 9 8 6 4 4 5 6 6 6 5 4 5 4 4 4 4 4 3 2 2 3 4 6 8 9 9 9 10 11 11 12 12 14 16 17 18 20 21 21 21 20 19 17 15 12 10 9 8 7 7 7 7 7 9 9 10 10 10 10 10 9 9 9 8 8 8 8 7 7 6 6 6 5 5 4 3 3
12 12 12 13 13 12 11 10 10 9 8 7 6 6 7 6 6 5 4 4 4 4 4 4 4 4 3 2 2 4 6 7 8 9 8 8 9 9 10 12 16 17 18 18 18 18 19 20 20 20 19 17 15 13 12 11 10 9 8 8 8 8 8 8 8 8 9 9 9 8 8 8 8 8 7 6 6 5 5 5 4 4 4 3 4
12 12 13 13 13 13 12 11 11 10 9 9 8 7 8 7 7 6 5 4 4 4 4 4 4 4 4 3 1 3 6 7 7 8 8 7 7 7 9 12 14 15 15 15 15 16 18 19 21 21 21 20 18 16 15 14 13 12 10 9 9 9 8 8 8 7 7 8 8 8 8 8 8 7 6 5 4 4 4 5 4 4 4 4 4
12 13 13 13 13 13 13 12 11 11 10 10 9 9 9 8 7 6 6 5 5 4 4 5 4 5 6 4 1 2 5 7 8 8 9 9 8 7 7 8 11 13 14 14 15 17 18 19 20 21 21 21 20 19 17 16 15 14 12 11 10 9 9 8 8 8 8 7 7 8 8 8 7 6 5 4 4 4 5 5 5 4 4 4 4
13 13 13 14 14 14 13 13 12 11 11 10 10 10 9 8 8 7 7 7 6 5 5 6 6 7 7 5 3 2 4 6 8 8 9 11 10 9 8 8 9 11 13 14 16 17 18 19 19 20 20 20 20 19 18 18 17 15 13 12 11 10 10 9 9 9 9 9 8 8 7 7 6 6 5 4 4 4 4 4 4 4 4 4 5
13 13 13 14 14 14 14 13 12 12 11 11 10 10 9 9 9 8 8 8 6 5 6 7 8 9 8 6 4 3 3 4 7 8 8 9 10 10 9 9 9 10 12 14 15 16 17 17 18 18 18 19 19 18 18 18 17 15 14 13 12 11 10 10 9 9 10 9 8 8 7 7 6 5 5 4 3 3 3 4 4 4 4 5 5
12 12 13 13 13 14 14 13 12 12 12 11 11 10 10 10 9 9 9 8 7 7 7 8 9 9 9 7 6 4 2 3 5 7 7 7 8 9 9 8 8 8 10 13 14 15 15 15 16 16 16 16 17 16 16 16 15 15 14 13 13 12 11 10 9 9 9 9 8 8 8 7 7 6 6 5 4 4 4 4 4 5 6 6 6
12 12 13 13 13 13 13 13 12 12 12 11 11 11 11 10 9 9 9 9 8 8 8 9 9 9 9 8 7 6 3 2 3 4 4 5 6 7 8 7 7 7 9 11 12 13 13 13 14 14 14 14 14 14 14 13 13 13 13 12 11 11 10 9 8 8 7 7 7 6 7 7 7 7 6 5 5 5 5 5 5 5 5 5 5
13 12 12 12 13 13 12 12 12 11 11 11 11 11 11 11 9 9 10 10 9 9 9 9 9 10 10 9 8 7 4 1 2 3 3 4 4 4 6 6 6 7 7 8 10 11 11 11 12 12 12 12 12 12 12 11 11 11 10 10 9 8 8 8 7 6 5 5 4 4 5 5 5 6 5 5 5 5 5 5 5 4 4 4 4
13 13 12 12 12 12 12 12 11 11 11 10 10 10 10 10 10 10 11 11 10 10 10 10 10 10 11 10 9 8 5 3 2 3 4 4 3 2 4 4 5 6 6 6 8 9 9 9 9 10 10 10 10 10 10 10 10 9 9 8 8 8 7 7 7 6 5 5 4 4 3 3 4 4 4 4 5 5 5 4 4 4 4 4 4
12 12 12 12 12 11 11 11 11 11 10 10 10 10 10 10 10 11 12 12 11 11 10 10 10 11 11 11 11 9 7 6 4 5 5 4 2 2 1 2 2 3 4 5 5 7 7 6 6 7 8 9 8 8 8 8 7 7 7 7 7 7 7 7 6 6 5 5 4 4 3 3 3 3 3 3 3 4 4 4 4 4 4 4 3
11 12 12 12 12 12 12 11 11 11 10 10 10 10 10 11 11 12 13 13 12 11 11 11 11 12 12 12 11 10 9 8 8 8 7 5 4 4 2 2 2 1 2 3 4 5 5 4 4 5 6 7 7 7 6 6 6 5 4 4 4 4 5 5 5 5 4 4 3 3 3 2 2 2 1 2 2 3 3 3 4 4 4 4 4
11 11 11 12 12 13 12 11 11 11 11 10 10 10 11 11 12 12 13 13 13 13 12 12 12 12 12 12 12 11 11 10 10 9 8 7 7 6 5 4 3 3 2 2 2 2 3 3 2 3 4 5 4 4 4 4 4 3 2 2 2 2 2 2 3 3 3 2 2 2 1 1 0 1 1 2 2 2 3 3 3 4 4 4 5
11 11 11 12 13 13 12 12 11 11 11 11 11 11 11 12 12 13 14 14 14 14 13 13 13 12 13 13 13 12 12 12 11 11 10 10 9 9 8 6 5 5 5 3 1 0 1 2 2 1 2 3 3 2 2 2 3 3 2 1 1 1 1 1 2 2 2 1 1 1 1 1 2 2 3 3 3 4 4 4 4 5 5 5 6
11 11 12 12 13 13 12 12 11 11 11 12 12 12 12 12 13 13 14 15 15 15 14 14 13 13 13 13 13 13 12 13 12 12 11 11 11 10 9 8 7 7 7 6 4 3 2 1 2 2 2 2 3 3 2 2 2 2 2 2 2 2 2 2 2 2 3 3 3 3 3 4 4 5 5 5 6 6 6 6 6 6 7 7 8
11 11 12 12 13 13 12 12 11 11 11 12 13 13 13 13 13 14 14 15 15 16 15 15 14 14 14 14 14 13 13 13 13 12 12 12 11 11 11 9 8 8 8 8 7 5 5 4 3 3 4 4 5 4 3 3 3 3 3 3 3 3 3 4 3 3 3 4 4 4 4 4 5 5 6 6 7 7 7 7 7 8 8 9 9
11 12 12 12 13 13 12 12 12 12 12 12 14 14 14 15 15 14 14 14 15 16 16 16 15 14 14 14 14 14 13 13 14 13 13 12 12 12 11 11 10 9 9 9 8 8 8 8 6 6 6 7 7 7 6 6 5 6 5 5 5 5 5 5 5 4 4 4 4 4 4 4 4 5 6 6 6 7 7 7 8 8 8 9 10
13 13 13 13 13 13 12 12 12 13 13 13 14 15 15 16 16 15 14 14 14 16 17 17 16 15 15 15 15 14 14 14 14 14 13 13 12 12 12 12 11 10 9 9 8 9 10 10 10 9 9 9 9 9 9 8 7 8 7 7 7 7 6 6 6 6 5 5 6 6 6 6 6 6 6 7 7 7 8 8 8 9 9 10 10
14 14 14 14 14 14 13 14 14 14 14 15 15 15 16 17 17 16 15 14 15 16 17 17 17 16 16 15 15 15 14 14 14 14 14 13 13 13 13 13 12 11 10 9 8 9 10 11 12 12 12 11 11 11 11 11 10 9 9 9 9 8 8 8 8 7 8 8 8 8 8 8 8 8 8 9 9 9 9 10 10 10 10 11 11
14 15 15 15 15 15 15 15 15 15 15 16 16 16 16 17 18 17 17 16 16 17 17 17 17 17 16 16 16 15 15 15 15 15 14 14 14 13 14 14 13 12 11 9 9 9 10 11 13 15 14 13 13 13 13 13 12 11 10 10 9 8 9 10 9 9 9 9 9 10 9 10 10 10 11 11 11 11 11 11 11 12 12 12 12
15 16 16 17 17 17 16 16 16 16 16 16 16 17 17 18 18 18 18 17 17 17 17 17 17 17 16 17 17 16 15 15 15 15 15 15 15 14 14 14 14 13 12 11 10 10 12 12 13 15 16 15 14 14 14 14 14 13 12 11 10 10 11 11 11 11 11 11 11 11 11 11 11 12 12 13 13 13 13 13 13 14 14 15 15
15 16 17 17 17 17 16 16 16 17 17 18 18 18 19 19 19 19 18 18 18 18 18 18 18 17 17 18 18 18 16 16 16 15 15 15 15 15 15 15 14 13 13 13 12 12 13 14 14 15 15 16 16 16 16 16 16 15 14 13 12 13 13 14 13 13 13 12 12 12 12 13 13 13 14 14 14 14 15 15 15 16 17 17 18
14 14 15 16 16 16 16 16 16 17 18 18 19 19 20 20 20 20 19 19 19 19 19 19 18 18 18 19 20 19 17 17 17 16 15 16 16 15 15 15 15 14 14 14 14 14 14 15 15 16 16 16 17 17 18 18 17 17 16 15 15 15 15 16 16 15 15 14 14 13 14 15 15 15 16 16 16 16 17 17 17 18 18 19 20
13 13 14 15 15 15 15 15 16 16 17 18 19 19 20 20 20 20 20 20 20 20 20 19 19 19 19 20 21 21 19 18 19 18 16 16 17 16 16 16 16 16 15 15 16 15 15 15 16 17 17 16 17 18 19 19 19 19 18 17 17 17 17 18 18 17 17 16 16 15 16 17 17 18 18 18 18 18 18 19 19 20 20 20 20
12 13 13 14 14 14 14 14 15 15 17 18 19 19 20 20 20 20 20 20 21 21 21 20 20 20 20 21 23 23 21 20 20 19 18 17 18 18 18 18 17 17 17 17 17 17 17 17 18 19 19 18 18 19 20 21 21 20 19 19 18 18 19 19 19 19 19 18 18 18 19 19 20 20 20 20 20 21 21 21 21 21 21 21 21
12 13 13 14 14 14 14 14 14 15 16 17 18 19 19 20 20 20 20 20 21 22 22 22 21 20 20 21 22 23 22 21 22 21 20 19 19 19 20 20 19 19 19 19 18 18 19 19 19 20 20 20 21 21 22 22 22 21 21 20 20 19 19 20 20 21 20 20 20 20 21 22 22 22 23 23 24 23 23 22 22 22 22 22 23
12 13 13 13 14 14 14 14 15 16 16 17 17 17 18 19 19 20 20 21 22 22 23 22 21 21 20 21 22 22 22 22 22 23 22 21 21 21 22 22 21 21 21 21 20 20 21 21 21 21 21 22 22 22 23 23 24 23 23 23 22 21 21 21 22 22 22 22 21 22 23 23 24 24 25 25 25 25 24 23 23 23 23 24 24
11 12 12 13 14 14 14 15 16 17 17 17 17 17 17 17 18 20 21 21 22 22 22 22 22 22 22 22 23 23 23 22 23 23 23 23 23 23 24 24 23 23 23 22 22 22 22 23 23 22 21 22 23 23 23 23 24 24 24 23 23 23 23 24 24 24 24 24 23 23 24 25 26 26 26 26 27 26 25 25 26 26 26 27 27
10 11 12 12 13 14 15 16 17 18 18 18 18 18 18 18 18 20 21 21 22 22 22 22 23 23 22 22 23 23 23 23 23 24 24 24 24 24 26 26 26 25 25 24 24 24 24 24 24 23 22 23 23 23 23 23 23 23 23 22 23 24 25 25 25 25 25 25 25 24 25 26 26 27 27 27 28 28 28 28 29 29 30 30 29
8 9 9 10 11 12 13 14 16 17 18 19 19 19 19 19 19 20 20 21 22 22 22 23 23 24 24 24 24 24 25 25 25 25 25 25 25 25 26 27 27 27 27 26 26 26 25 25 24 23 23 23 24 24 24 24 22 21 21 22 24 25 25 25 25 25 25 25 26 26 25 26 26 26 27 28 29 29 30 30 30 31 31 31 31
6 7 7 8 8 9 9 10 11 12 14 15 16 17 18 18 19 20 21 22 22 23 23 23 23 24 24 25 26 26 26 26 26 26 26 26 26 26 27 27 27 27 28 28 28 27 27 26 26 25 25 25 24 25 25 24 23 21 22 24 26 26 26 26 26 26 26 27 27 27 27 26 26 26 27 28 29 30 31 32 32 32 31 32 32
8 8 9 9 9 10 10 10 10 11 11 12 12 13 14 15 16 17 19 20 21 23 24 24 25 25 25 25 25 26 27 27 28 28 28 28 28 28 28 28 28 28 29 29 29 29 29 28 27 26 26 26 26 27 27 25 24 24 24 25 28 28 27 28 27 27 28 28 29 29 29 28 28 28 28 29 30 31 32 33 33 32 31 32 33
11 12 12 12 12 13 13 13 13 13 13 14 14 14 14 15 16 17 18 18 19 20 21 22 23 24 25 25 25 26 27 28 28 29 30 30 30 30 29 29 28 29 29 29 30 30 30 29 28 27 26 27 28 29 28 26 26 26 26 27 29 30 30 31 31 31 31 31 31 31 31 30 30 31 30 30 31 31 32 33 33 33 32 33 34
14 15 15 16 16 16 16 17 17 17 17 17 18 18 18 18 18 19 20 20 20 20 21 21 21 22 23 23 24 25 26 27 29 30 31 31 30 30 29 28 28 28 29 30 31 31 31 30 29 27 26 28 30 31 30 29 29 29 30 30 30 31 33 33 33 34 34 34 35 34 34 33 33 34 33 32 32 32 33 34 34 34 34 36 38
15 16 17 18 18 19 20 20 20 21 21 21 22 22 22 22 22 23 23 23 24 24 24 23 23 22 22 22 23 23 23 25 28 31 32 31 30 30 30 29 29 28 29 30 31 31 32 31 29 27 28 30 32 32 32 31 32 32 33 33 32 34 36 36 36 36 37 38 38 38 37 36 35 34 34 33 33 34 35 36 36 36 37 38 39
16 17 18 18 19 20 21 22 22 23 23 24 25 25 25 25 26 26 26 27 27 27 27 27 26 25 24 24 24 24 24 24 26 29 31 29 29 30 31 30 30 30 31 32 31 31 33 33 30 28 31 34 34 34 35 35 36 36 35 35 36 37 37 37 37 37 36 36 37 37 37 36 34 34 35 34 35 36 36 36 36 36 37 38 39
19 19 19 19 19 20 21 21 22 23 24 25 25 26 26 27 28 28 29 29 29 30 30 30 30 29 28 28 27 26 27 27 27 29 30 27 26 29 31 31 31 31 32 34 34 34 34 34 32 32 34 36 36 37 38 38 38 38 36 36 36 35 34 35 35 34 34 33 34 35 36 36 36 35 36 35 35 36 36 36 35 36 38 39 37
20 20 20 20 20 21 21 22 22 23 23 24 25 26 26 27 28 28 29 30 30 31 31 31 32 32 32 31 31 29 30 30 30 32 31 27 26 29 31 31 31 32 34 36 36 36 36 35 34 35 36 37 37 38 39 38 37 36 35 35 35 35 35 36 35 35 35 34 34 35 36 36 36 36 35 35 36 36 35 34 34 37 37 34 30
Wind_Direction
111 109 114 123 150 133 62 356 349 19 22 22 28 25 21 17 18 21 11 4 2 0 6 7 8 17 26 39 45 38 30 27 26 20 17 14 13 14 9 356 347 349 354 343 282 249 242 243 245 236 224 222 220 217 218 222 219 219 220 215 213 215 215 212 212 219 225 227 225 222 220 220 220 221 226 228 231 233 232 231 231 232 233 233 230
120 122 123 131 160 210 295 304 316 7 24 24 33 28 16 21 25 16 3 359 3 4 5 5 9 21 36 44 42 31 23 25 25 20 17 15 15 18 15 2 351 352 351 337 296 252 242 242 243 238 229 222 220 216 212 214 214 214 215 210 207 209 212 213 211 212 217 224 227 226 222 222 223 224 225 226 229 232 233 233 233 231 226 223 224
132 135 140 149 170 212 258 278 307 356 21 27 32 25 15 24 19 1 359 0 7 9 2 2 7 20 34 40 41 33 25 28 27 21 19 19 20 20 16 6 358 359 0 351 325 278 241 235 237 233 229 222 220 219 211 210 212 211 211 206 200 199 204 211 213 211 211 216 224 226 222 219 221 225 226 225 228 231 233 234 233 229 224 222 226
150 153 158 160 179 212 242 259 294 343 18 30 31 26 18 18 3 348 1 9 16 14 3 1 3 14 24 31 44 41 30 29 25 21 21 21 23 22 16 8 3 6 12 12 0 324 238 231 239 233 228 222 219 218 213 209 210 210 210 207 202 198 200 205 210 212 211 213 221 227 227 224 221 223 225 225 227 228 231 234 233 229 226 227 232
169 171 168 166 184 212 236 246 266 326 7 29 32 29 18 2 347 347 2 15 21 13 360 2 0 4 10 22 44 43 29 24 21 22 23 23 26 24 19 12 7 9 15 19 22 17 257 231 234 231 224 220 216 215 214 210 207 207 207 207 205 202 201 204 207 210 210 212 218 224 229 231 228 223 223 223 226 228 229 233 235 233 231 231 235
181 180 174 173 187 210 231 240 243 293 351 21 32 31 11 343 337 349 3 17 23 5 354 3 356 351 355 12 41 42 28 22 24 25 24 28 32 28 23 19 15 13 14 18 27 33 360 242 225 220 215 212 210 211 212 210 208 209 210 208 205 201 199 204 209 211 214 216 219 224 228 233 234 229 225 223 224 228 229 231 234 234 232 232 236
185 182 177 179 191 210 228 239 245 272 329 8 28 29 359 329 335 352 3 19 25 358 347 356 347 336 341 5 37 41 29 24 29 32 31 35 38 33 26 23 22 20 19 21 29 39 39 45 179 189 195 197 201 207 210 209 210 211 212 210 207 205 201 203 208 214 222 223 223 229 234 236 235 233 232 227 223 227 229 229 231 232 232 233 237
186 184 182 186 200 216 227 235 241 260 307 5 25 18 340 325 339 347 358 20 27 351 337 342 334 321 326 358 35 37 26 27 35 39 40 42 42 38 32 28 26 25 25 28 33 42 50 63 104 155 175 183 190 196 198 202 206 208 210 206 202 202 202 206 210 213 220 223 222 227 235 237 233 232 234 231 224 223 228 230 230 230 230 232 236
187 187 187 194 208 222 229 232 238 254 292 9 21 4 330 327 336 335 349 19 27 341 321 322 323 311 313 348 25 27 21 31 42 47 48 47 43 40 38 33 29 28 27 30 37 45 52 63 83 118 147 163 172 168 171 182 194 201 204 200 195 198 205 215 217 215 218 221 221 223 229 234 233 230 230 231 227 222 225 228 230 231 231 234 238
189 190 193 199 211 223 230 234 239 248 266 345 10 4 335 325 328 326 339 7 16 316 302 308 312 298 302 340 10 12 19 38 51 58 55 50 42 41 43 38 34 32 32 33 37 46 57 65 75 91 112 131 145 149 158 173 183 193 199 197 198 205 212 219 218 216 216 215 215 217 223 229 230 227 224 228 229 225 225 227 229 231 232 235 240
194 195 198 202 211 220 225 232 239 244 258 309 359 9 336 319 319 318 326 344 341 285 287 296 294 286 299 342 2 5 24 43 56 62 55 47 41 45 48 42 39 40 39 39 41 49 62 72 80 91 105 119 131 141 156 171 178 187 197 200 203 207 209 210 211 212 212 211 209 213 221 225 226 225 220 222 225 226 225 227 230 231 231 234 238
200 204 206 207 213 220 223 230 240 248 264 312 356 352 317 308 307 304 309 316 309 293 287 282 280 284 302 344 4 10 32 46 57 58 50 51 53 54 53 46 43 46 45 46 47 52 60 69 78 86 93 102 114 131 149 161 169 178 191 199 197 195 197 197 199 201 205 208 206 210 218 221 222 221 217 216 219 222 223 226 231 230 229 231 237
208 211 214 215 218 222 226 232 242 252 264 297 330 311 291 288 284 282 285 287 291 295 286 276 278 285 297 355 13 20 39 53 65 63 55 62 65 58 56 52 50 51 51 50 52 52 54 59 65 72 78 84 91 106 124 138 147 151 162 173 171 173 180 184 189 191 192 195 196 202 209 212 216 216 213 213 214 216 218 221 226 227 227 227 235
215 216 218 222 224 226 230 234 242 249 257 270 281 282 280 274 264 262 259 265 275 275 269 272 277 282 298 346 12 29 47 61 72 72 64 67 69 61 59 61 59 57 54 53 54 54 54 56 60 66 73 78 84 93 104 116 125 128 134 145 152 157 164 170 176 179 178 179 183 191 197 201 208 211 212 211 209 210 211 215 218 219 220 225 234
221 222 224 227 230 232 234 237 242 248 251 256 263 273 277 270 262 258 251 256 259 249 248 252 260 270 280 297 343 37 54 68 78 79 73 71 71 64 61 64 62 59 57 57 57 59 62 64 65 68 74 78 82 87 94 104 113 119 124 131 139 145 149 154 162 166 166 169 174 180 188 195 202 207 210 209 204 203 206 213 217 215 216 227 239
224 228 229 231 235 237 239 241 244 249 252 254 259 267 269 268 263 259 252 248 242 235 233 232 240 251 250 260 302 58 68 77 82 79 75 79 81 69 60 64 67 68 70 71 71 70 71 72 71 72 75 79 81 82 86 91 96 103 110 118 126 134 140 145 153 158 161 163 166 171 180 190 196 200 203 202 197 197 201 209 215 215 219 230 244
225 229 232 234 237 240 241 241 243 248 253 256 258 259 261 262 258 254 251 243 233 225 225 223 229 236 233 235 227 99 85 86 85 77 74 82 93 93 85 81 80 81 82 83 81 76 73 72 72 72 72 75 78 81 83 86 88 92 98 106 115 124 132 140 146 148 150 155 159 163 170 177 181 179 180 183 187 192 198 205 212 216 224 236 246
226 228 231 233 236 238 240 240 240 245 250 254 255 254 255 255 251 247 248 247 237 226 224 221 221 228 229 228 215 155 107 92 85 79 75 78 88 100 105 98 86 81 82 82 80 77 75 73 72 72 71 71 73 76 80 83 85 87 92 97 104 111 120 129 135 138 141 147 150 152 153 157 158 156 158 165 177 194 205 213 222 230 240 251 258
230 231 233 234 234 236 238 239 240 244 249 252 253 253 252 250 247 245 249 251 241 229 225 219 218 223 225 223 215 192 141 101 87 81 75 77 87 96 99 97 87 79 80 81 79 78 77 76 75 75 75 74 74 74 76 80 82 85 87 91 96 101 108 116 124 128 130 132 134 134 135 137 140 142 147 157 172 196 214 226 238 248 253 257 259
234 234 235 236 237 238 240 241 241 243 248 251 253 252 251 248 246 245 249 252 241 230 224 221 221 222 221 220 215 211 188 117 85 74 70 74 85 88 86 89 91 87 82 82 81 79 79 79 79 79 79 80 81 80 81 83 86 88 90 91 94 97 100 105 112 116 119 123 128 133 137 142 146 148 153 162 174 194 213 225 234 242 247 249 253
236 234 235 237 238 241 243 243 241 241 243 248 250 251 251 249 246 244 248 249 240 231 226 225 226 223 221 221 219 221 214 129 56 35 44 54 63 72 72 76 87 92 87 83 82 80 79 80 80 81 81 82 85 86 87 88 90 92 93 96 98 100 102 102 103 106 112 120 129 138 147 153 157 159 164 173 185 200 214 225 232 240 245 247 249
239 237 237 238 240 241 244 244 242 241 243 245 246 248 251 250 248 245 246 248 244 237 231 230 232 228 225 226 228 229 228 201 30 8 14 24 25 45 58 62 75 89 89 83 82 80 80 81 82 82 82 83 84 87 89 90 91 92 94 96 98 99 102 102 101 104 109 118 132 147 161 168 170 172 177 184 194 203 208 215 223 228 234 237 238
241 241 241 242 245 247 249 250 248 244 243 245 246 248 251 252 250 247 247 249 248 243 237 234 236 235 232 233 236 238 238 254 336 348 346 352 344 5 37 45 61 80 85 84 86 85 80 80 83 85 86 86 86 87 89 90 90 92 95 97 99 99 98 99 100 101 106 114 123 135 147 156 159 166 173 179 185 189 191 195 199 204 210 216 220
241 242 241 242 247 250 252 254 253 248 243 243 246 247 249 251 250 250 250 251 250 248 244 240 239 240 239 239 242 244 245 251 267 289 304 308 288 292 357 24 37 66 77 77 85 91 89 81 82 86 89 89 88 86 84 84 86 90 94 98 101 103 102 100 99 98 99 100 103 108 113 117 124 136 150 162 168 176 183 189 195 204 211 219 228
241 242 241 239 243 246 247 248 250 249 244 240 241 243 247 249 250 250 251 252 251 249 246 244 244 245 246 246 247 250 254 255 260 271 281 282 280 284 296 319 328 7 59 70 77 93 101 95 88 92 92 92 91 87 81 77 77 78 88 98 103 105 108 107 104 101 100 97 96 95 97 101 110 126 156 177 187 193 200 207 214 222 229 237 244
242 245 246 243 242 244 244 246 248 248 244 238 237 240 244 248 250 251 252 253 253 251 248 247 248 249 250 252 252 254 260 263 266 275 281 283 286 288 291 297 299 307 340 43 67 92 115 114 109 112 110 108 104 98 92 89 87 82 80 100 116 119 119 122 120 116 110 102 96 90 88 91 111 211 232 234 234 232 235 239 242 246 250 253 257
247 249 251 250 247 246 245 245 247 248 245 238 234 236 239 244 249 251 252 254 254 253 252 251 251 252 254 256 256 257 263 267 271 277 282 284 286 287 288 291 295 300 307 313 316 301 165 140 132 148 157 143 137 131 121 122 127 124 121 148 160 161 175 187 174 164 164 176 187 206 230 241 246 247 249 251 252 252 255 255 258 262 266 267 268
248 249 249 249 249 247 246 245 246 248 248 243 236 233 234 238 243 247 250 252 254 254 254 254 255 256 257 259 260 261 265 269 272 275 279 281 284 287 288 291 293 294 296 296 290 280 268 234 168 179 217 212 193 181 172 173 172 166 174 194 210 209 214 220 215 208 207 213 218 226 233 240 245 247 250 253 255 257 259 261 263 265 268 270 271
247 247 246 247 246 245 245 246 245 246 249 248 243 236 233 234 238 242 245 249 253 255 253 253 254 257 258 260 261 262 264 267 270 271 274 278 282 286 289 291 292 291 291 291 289 285 279 269 249 238 246 247 239 226 218 217 222 222 214 213 221 223 226 226 218 211 213 215 218 221 226 233 239 243 247 251 255 259 261 263 264 267 269 272 273
248 247 246 247 247 245 244 245 245 245 246 248 247 241 235 234 234 237 240 244 251 254 254 253 254 256 258 259 260 260 262 265 268 270 273 277 281 283 286 289 289 288 287 288 294 298 289 278 266 259 259 261 256 249 244 240 242 246 242 239 240 237 237 240 237 230 227 229 233 235 236 238 242 246 248 249 252 255 259 261 264 267 270 272 273
245 245 245 244 244 245 245 245 245 244 244 246 247 245 241 238 236 236 236 239 245 252 254 254 254 254 256 258 259 261 263 266 269 272 273 276 279 282 284 286 286 286 284 284 290 293 289 283 276 266 261 261 262 260 257 250 247 249 247 248 251 250 249 250 252 252 251 252 253 254 256 255 256 259 258 257 256 257 259 261 264 267 270 272 273
241 242 241 239 239 241 244 245 246 245 244 244 246 247 245 243 241 239 237 236 240 246 251 253 254 255 255 257 259 262 264 267 269 272 274 275 276 278 280 281 282 283 282 282 281 281 283 283 279 272 266 261 260 262 261 256 252 250 248 249 252 256 258 255 254 257 259 260 260 262 264 264 264 263 263 263 262 262 264 265 268 271 274 276 277
238 238 237 235 235 237 240 243 245 245 245 245 246 246 246 246 245 243 240 237 239 245 248 251 253 256 257 259 261 262 264 266 268 269 272 274 275 275 276 277 279 281 281 279 275 274 277 277 277 274 269 264 260 260 260 260 259 256 253 252 253 260 265 260 257 259 261 261 263 265 267 268 269 269 269 268 269 270 271 272 274 276 278 279 280
236 236 235 233 233 234 236 238 240 242 244 245 246 246 246 245 245 245 244 242 243 246 249 251 253 255 258 260 260 260 261 263 265 267 269 271 273 274 274 275 277 278 279 277 269 263 263 267 272 271 268 265 262 258 257 257 258 259 259 256 254 260 265 261 260 263 263 262 263 265 267 269 270 271 272 272 273 274 275 276 278 280 281 281 281
239 240 239 237 235 235 237 238 238 239 241 241 241 243 244 244 244 243 242 242 244 247 250 252 253 255 256 258 259 258 257 258 261 263 264 266 268 270 271 273 274 274 274 274 270 265 261 263 267 268 266 266 264 262 259 257 256 256 258 257 254 254 257 258 259 261 260 259 259 261 263 265 266 268 270 271 272 273 275 276 278 279 280 280 281
245 249 249 246 243 241 241 241 240 239 240 240 239 239 241 243 245 245 243 241 242 245 249 252 253 254 255 256 258 258 256 255 257 258 259 261 263 265 265 267 268 269 268 269 269 268 265 264 266 266 265 265 265 265 265 263 259 255 255 256 255 253 253 255 258 259 258 258 259 262 265 267 268 269 269 270 271 272 274 277 279 279 280 280 280
252 254 254 252 249 246 245 244 244 244 243 243 242 240 240 241 245 247 248 246 243 243 246 250 252 254 256 257 258 259 257 255 255 256 256 257 260 261 261 261 262 263 263 264 265 266 266 264 264 265 265 264 263 264 265 265 263 259 257 256 256 255 255 256 258 260 261 261 262 266 270 273 273 273 272 271 271 272 275 278 279 280 280 280 280
257 258 258 258 256 254 252 251 250 251 250 248 246 245 244 243 244 246 248 248 247 245 245 247 250 253 257 259 260 262 260 257 256 256 255 255 257 259 260 260 260 261 261 260 261 262 264 264 264 265 266 265 264 264 264 265 266 265 263 261 260 259 259 260 261 262 263 263 264 267 271 273 274 273 271 269 269 271 275 277 278 279 280 280 281
260 262 262 262 261 260 258 257 257 257 256 254 251 250 249 248 247 247 248 248 249 248 247 247 249 252 255 257 259 262 263 262 260 258 257 255 256 258 259 260 260 261 261 261 260 260 262 263 263 265 266 267 267 267 267 268 269 269 269 268 267 266 265 265 263 264 265 265 266 267 270 272 272 272 271 271 271 273 275 277 277 278 278 279 280
261 263 265 266 266 264 262 262 262 262 261 259 258 258 257 255 253 252 252 251 250 250 250 250 250 251 251 252 254 256 259 260 260 260 259 257 255 256 256 257 257 258 259 260 260 259 260 261 263 264 267 269 269 269 269 269 270 270 271 271 272 271 270 268 267 266 267 267 268 268 269 270 271 271 271 271 272 274 275 277 276 276 277 278 278
261 263 266 270 270 269 268 268 267 267 265 263 263 265 265 264 263 260 258 258 256 255 254 254 253 252 251 251 251 253 255 255 255 256 257 255 255 255 255 255 254 254 255 257 258 258 259 260 262 263 266 269 270 271 271 270 270 271 271 272 272 271 269 267 267 267 267 267 268 267 268 269 270 271 271 271 272 273 275 277 278 279 280 280 280
263 265 267 270 272 272 271 270 270 268 268 268 267 267 266 267 268 267 267 267 266 265 263 262 261 259 257 255 254 254 255 254 253 253 253 252 251 252 254 255 255 255 255 256 257 258 258 260 261 263 265 267 269 271 272 273 272 272 272 273 272 270 268 268 269 270 270 270 270 268 267 268 270 273 274 274 275 275 277 279 280 281 281 281 281
266 268 270 271 272 271 270 270 270 270 271 272 273 271 270 271 271 272 273 273 273 272 271 269 268 266 265 263 261 260 259 257 255 254 253 253 251 250 252 254 255 257 257 257 257 257 258 259 260 261 262 263 266 268 269 270 271 272 273 273 270 268 269 271 272 273 274 274 273 272 271 271 273 275 276 277 277 277 278 279 280 280 280 280 280
277 277 277 278 278 277 277 277 278 280 280 280 280 278 276 276 277 277 277 277 276 275 274 272 272 270 269 267 266 266 265 264 261 258 257 256 254 252 252 252 253 255 256 257 258 258 258 258 259 260 261 262 264 264 264 265 266 266 267 269 270 271 272 272 272 272 272 272 272 273 274 275 277 278 278 278 277 277 277 278 278 278 278 279 281
290 287 284 284 284 285 287 287 289 290 290 289 288 286 286 286 286 286 284 282 281 279 277 275 274 272 271 270 268 268 268 267 266 264 262 260 258 256 255 255 255 254 255 255 257 258 258 258 259 260 262 265 266 264 263 264 265 265 266 270 273 274 274 273 272 271 271 271 272 272 272 274 276 278 278 278 277 277 277 278 279 279 281 284 284
287 285 283 282 282 283 283 284 284 285 287 287 287 287 288 289 289 289 288 289 288 286 284 281 278 275 273 272 271 270 269 268 267 267 265 263 261 260 260 259 259 259 259 258 258 259 259 260 261 262 265 267 267 266 265 266 267 267 267 268 269 271 272 273 273 272 272 272 271 270 270 272 274 276 277 277 278 279 281 283 284 283 284 285 285
281 282 282 283 283 283 283 283 283 284 284 284 285 285 285 285 285 286 287 288 287 287 285 284 282 281 279 277 275 272 270 269 267 266 264 263 263 263 263 262 262 262 262 261 261 261 262 262 264 266 268 268 268 267 268 269 269 268 267 266 268 270 271 272 273 274 273 272 272 272 273 273 274 276 276 276 277 280 282 284 284 284 284 285 285
280 281 282 284 285 286 287 287 287 287 286 285 284 284 284 284 283 284 284 284 284 284 283 283 283 282 281 281 280 278 275 272 269 266 264 264 265 266 266 266 266 266 265 264 263 263 264 265 266 267 267 267 267 267 268 269 269 269 269 270 271 270 270 271 272 272 271 271 272 273 275 275 275 276 276 276 278 280 280 280 281 282 283 283 283
280 280 281 282 283 284 285 285 286 286 285 285 284 284 284 284 284 283 283 282 282 282 282 282 281 281 280 279 279 279 278 276 272 268 267 266 266 267 268 269 269 269 269 267 264 263 264 265 266 265 264 264 266 268 269 269 270 272 273 272 271 271 272 273 273 272 271 271 272 274 275 276 276 276 276 277 279 280 280 280 280 281 282 282 282
286 286 285 284 283 282 282 282 282 283 282 282 283 283 283 283 283 283 282 282 281 280 280 280 281 281 280 278 277 278 277 276 275 273 272 272 270 267 267 267 267 267 267 266 264 264 264 266 266 265 264 265 267 269 270 269 270 272 274 273 273 273 274 276 277 277 276 276 277 277 276 276 277 277 278 279 279 280 281 282 283 284 284 281 278
288 289 288 288 287 286 286 285 285 284 283 283 283 283 283 283 282 282 281 281 280 280 279 279 279 279 279 278 277 277 276 275 276 276 277 277 273 268 267 266 266 266 266 266 266 267 267 268 267 266 267 268 269 270 271 271 272 274 276 277 277 278 280 282 283 282 281 280 279 278 277 277 277 279 280 280 280 280 280 281 284 288 286 277 271
Height
5919 5920 5921 5921 5922 5921 5921 5922 5922 5923 5923 5923 5924 5925 5925 5924 5923 5923 5923 5923 5922 5921 5920 5919 5919 5918 5917 5916 5915 5914 5913 5912 5911 5910 5909 5907 5906 5904 5902 5900 5898 5896 5896 5895 5894 5894 5893 5893 5892 5893 5894 5895 5895 5896 5898 5899 5901 5903 5905 5906 5907 5908 5909 5910 5910 5912 5914 5916 5916 5916 5916 5916 5916 5917 5918 5920 5922 5923 5924 5925 5925 5925 5925 5925 5926
5919 5920 5921 5921 5921 5921 5921 5921 5922 5922 5922 5923 5924 5924 5924 5924 5923 5923 5923 5922 5922 5921 5921 5920 5919 5918 5917 5916 5916 5915 5913 5912 5912 5911 5909 5907 5906 5904 5902 5900 5897 5895 5895 5893 5892 5892 5892 5891 5891 5891 5892 5893 5894 5895 5896 5898 5900 5902 5904 5905 5906 5908 5909 5910 5910 5910 5912 5914 5915 5916 5915 5915 5916 5917 5918 5920 5921 5922 5923 5924 5924 5924 5924 5925 5925
5919 5920 5920 5921 5921 5920 5921 5921 5922 5922 5922 5923 5923 5924 5924 5923 5922 5923 5923 5923 5922 5922 5921 5920 5919 5918 5917 5917 5917 5916 5914 5913 5912 5911 5909 5907 5905 5903 5901 5899 5897 5895 5894 5892 5890 5890 5890 5890 5890 5890 5890 5891 5893 5894 5895 5897 5899 5901 5903 5903 5904 5905 5906 5908 5909 5909 5910 5912 5914 5915 5915 5915 5916 5916 5917 5919 5920 5921 5922 5922 5923 5924 5924 5924 5924
5919 5919 5920 5921 5920 5920 5920 5921 5921 5922 5922 5922 5923 5924 5923 5922 5922 5922 5923 5923 5922 5922 5921 5920 5919 5918 5918 5918 5918 5916 5915 5913 5912 5911 5909 5907 5905 5903 5901 5899 5897 5895 5894 5892 5890 5889 5888 5888 5888 5888 5889 5890 5892 5893 5894 5896 5899 5901 5902 5902 5902 5903 5904 5906 5907 5908 5909 5910 5912 5914 5914 5914 5915 5915 5916 5917 5919 5920 5920 5921 5922 5924 5924 5924 5924
5918 5919 5920 5920 5920 5920 5920 5920 5921 5922 5922 5922 5923 5924 5923 5922 5922 5922 5922 5922 5922 5921 5921 5920 5920 5919 5919 5919 5918 5917 5915 5914 5912 5911 5909 5907 5905 5903 5901 5899 5897 5895 5893 5892 5891 5889 5888 5887 5888 5888 5888 5889 5890 5892 5893 5896 5899 5899 5900 5901 5902 5903 5904 5905 5907 5907 5908 5909 5911 5913 5913 5914 5914 5915 5915 5916 5917 5918 5919 5920 5922 5923 5924 5924 5924
5918 5918 5919 5920 5920 5919 5919 5920 5921 5921 5921 5922 5923 5923 5923 5922 5922 5922 5922 5922 5922 5921 5921 5920 5920 5919 5919 5919 5918 5917 5916 5914 5912 5911 5910 5908 5905 5904 5902 5900 5898 5896 5894 5892 5891 5890 5888 5887 5887 5887 5887 5888 5889 5891 5892 5895 5898 5899 5899 5900 5901 5902 5903 5905 5906 5906 5907 5908 5910 5911 5912 5913 5914 5914 5914 5915 5916 5917 5918 5920 5921 5923 5923 5923 5923
5917 5918 5919 5919 5919 5919 5919 5920 5921 5921 5921 5922 5923 5923 5922 5922 5922 5922 5922 5922 5922 5921 5921 5921 5920 5920 5919 5919 5918 5918 5916 5914 5912 5911 5910 5908 5906 5904 5902 5900 5899 5897 5895 5893 5892 5890 5888 5887 5886 5886 5887 5888 5889 5890 5891 5894 5897 5898 5899 5900 5902 5902 5903 5904 5905 5906 5907 5908 5909 5911 5912 5913 5914 5914 5914 5914 5915 5916 5918 5919 5920 5921 5922 5922 5922
5917 5917 5918 5919 5919 5919 5919 5920 5921 5921 5921 5922 5923 5923 5922 5922 5921 5921 5922 5922 5922 5922 5921 5921 5921 5920 5920 5919 5919 5918 5917 5915 5913 5911 5910 5908 5907 5905 5903 5901 5899 5898 5896 5895 5893 5891 5890 5888 5887 5887 5888 5889 5889 5890 5891 5893 5896 5898 5899 5901 5902 5902 5903 5904 5905 5906 5907 5908 5909 5910 5911 5912 5913 5913 5913 5914 5914 5915 5917 5918 5919 5920 5921 5921 5922
5916 5917 5918 5918 5918 5918 5919 5919 5920 5920 5921 5922 5923 5923 5922 5921 5921 5921 5922 5922 5922 5922 5921 5921 5921 5920 5920 5919 5919 5918 5917 5915 5913 5912 5910 5908 5907 5906 5905 5902 5900 5898 5897 5895 5893 5892 5891 5889 5889 5889 5889 5889 5890 5890 5891 5893 5895 5897 5899 5900 5901 5902 5902 5903 5904 5905 5906 5907 5908 5909 5910 5911 5911 5912 5912 5913 5914 5915 5916 5917 5918 5919 5920 5921 5921
5916 5916 5917 5917 5917 5918 5918 5919 5920 5920 5921 5922 5923 5923 5922 5921 5921 5921 5922 5923 5923 5923 5922 5921 5921 5921 5920 5920 5919 5918 5917 5915 5913 5912 5911 5909 5909 5907 5906 5904 5902 5900 5898 5896 5894 5893 5892 5891 5890 5890 5889 5890 5890 5891 5892 5894 5896 5897 5899 5899 5900 5900 5901 5902 5904 5905 5906 5906 5907 5908 5909 5910 5911 5911 5911 5912 5913 5914 5915 5916 5918 5919 5919 5920 5921
5915 5916 5916 5917 5917 5917 5918 5918 5919 5920 5921 5922 5922 5923 5922 5921 5921 5921 5922 5923 5923 5923 5922 5921 5921 5921 5920 5920 5919 5918 5917 5915 5914 5913 5912 5911 5910 5908 5907 5905 5904 5902 5900 5898 5897 5895 5894 5893 5892 5892 5891 5891 5891 5892 5893 5894 5896 5897 5898 5898 5899 5900 5901 5902 5903 5904 5905 5905 5906 5907 5908 5909 5910 5911 5911 5912 5913 5914 5915 5916 5917 5918 5919 5919 5920
5915 5915 5915 5916 5916 5916 5917 5918 5918 5919 5920 5921 5922 5922 5922 5921 5921 5922 5923 5923 5923 5923 5922 5921 5921 5921 5921 5920 5919 5918 5917 5915 5914 5913 5912 5911 5910 5909 5908 5907 5906 5904 5902 5900 5899 5897 5896 5895 5894 5893 5892 5892 5892 5893 5893 5894 5896 5897 5897 5897 5898 5899 5900 5902 5903 5904 5904 5904 5905 5907 5908 5909 5910 5910 5911 5912 5912 5913 5914 5916 5917 5918 5918 5919 5919
5914 5914 5915 5915 5915 5915 5916 5917 5917 5918 5919 5920 5922 5922 5922 5921 5921 5922 5923 5923 5923 5923 5922 5922 5921 5921 5921 5920 5919 5918 5917 5916 5915 5913 5912 5911 5911 5910 5909 5909 5908 5906 5904 5903 5901 5898 5897 5895 5894 5893 5892 5892 5892 5893 5893 5894 5895 5896 5896 5897 5898 5899 5900 5902 5902 5903 5903 5904 5905 5906 5907 5908 5909 5910 5911 5912 5912 5913 5914 5915 5917 5917 5918 5918 5919
5913 5913 5914 5914 5914 5914 5915 5916 5917 5917 5918 5920 5921 5922 5922 5921 5921 5922 5923 5923 5923 5923 5922 5922 5922 5922 5921 5921 5920 5919 5917 5916 5915 5914 5913 5913 5913 5912 5912 5911 5909 5907 5905 5904 5901 5899 5899 5898 5896 5895 5894 5894 5894 5894 5894 5894 5895 5895 5896 5897 5898 5900 5901 5902 5902 5902 5903 5903 5905 5906 5907 5908 5909 5910 5911 5911 5912 5913 5914 5915 5916 5917 5917 5917 5918
5912 5912 5913 5913 5913 5914 5914 5915 5916 5917 5918 5919 5920 5921 5921 5921 5921 5922 5922 5922 5923 5923 5923 5922 5922 5921 5921 5921 5920 5919 5917 5916 5916 5915 5915 5914 5914 5914 5913 5912 5910 5908 5906 5905 5904 5903 5903 5902 5900 5899 5897 5896 5896 5896 5896 5896 5896 5897 5898 5898 5899 5900 5901 5902 5902 5903 5903 5904 5904 5905 5907 5908 5909 5910 5911 5912 5913 5913 5914 5916 5916 5916 5917 5917 5918
5911 5911 5912 5912 5913 5913 5914 5914 5915 5916 5917 5918 5919 5920 5920 5920 5920 5921 5922 5922 5922 5923 5923 5922 5922 5921 5922 5921 5920 5919 5918 5917 5917 5916 5916 5915 5915 5914 5914 5913 5911 5910 5910 5909 5908 5908 5907 5905 5903 5902 5900 5899 5898 5898 5898 5898 5898 5899 5899 5900 5901 5901 5902 5902 5903 5903 5904 5905 5905 5905 5906 5908 5909 5910 5911 5912 5913 5914 5915 5916 5916 5916 5916 5917 5917
5910 5910 5911 5912 5912 5913 5913 5914 5915 5916 5916 5918 5919 5919 5919 5920 5920 5920 5921 5922 5922 5923 5922 5922 5922 5922 5922 5921 5920 5919 5919 5919 5918 5917 5917 5916 5916 5916 5915 5915 5914 5913 5913 5912 5911 5909 5908 5906 5905 5903 5902 5901 5900 5900 5900 5900 5900 5900 5901 5902 5902 5903 5903 5903 5904 5904 5905 5905 5906 5906 5907 5908 5909 5910 5911 5912 5913 5914 5915 5916 5916 5916 5916 5917 5917
5909 5910 5910 5911 5912 5912 5913 5913 5914 5915 5916 5917 5918 5918 5919 5919 5920 5920 5920 5921 5922 5922 5922 5922 5922 5922 5921 5921 5920 5920 5920 5920 5919 5918 5918 5917 5917 5917 5917 5917 5916 5914 5914 5913 5911 5909 5908 5907 5906 5905 5904 5903 5902 5902 5902 5901 5901 5902 5903 5903 5904 5904 5905 5905 5905 5905 5905 5906 5906 5907 5908 5909 5909 5910 5911 5912 5913 5914 5915 5916 5916 5916 5916 5917 5917
5909 5909 5910 5910 5911 5911 5912 5913 5914 5915 5916 5916 5917 5918 5919 5919 5919 5920 5920 5921 5921 5922 5922 5922 5922 5921 5921 5921 5920 5920 5920 5920 5919 5919 5919 5918 5918 5918 5918 5917 5916 5915 5913 5912 5911 5910 5909 5908 5907 5907 5906 5905 5904 5904 5904 5903 5903 5904 5904 5905 5905 5906 5906 5906 5906 5906 5906 5906 5907 5907 5908 5909 5910 5910 5911 5912 5913 5914 5915 5915 5916 5916 5916 5916 5916
5908 5909 5910 5910 5910 5911 5911 5912 5913 5914 5915 5915 5916 5917 5918 5919 5919 5919 5920 5920 5921 5921 5922 5922 5921 5921 5921 5920 5920 5920 5920 5919 5919 5919 5919 5919 5919 5918 5918 5917 5916 5915 5914 5912 5911 5911 5910 5910 5909 5908 5908 5907 5907 5906 5906 5906 5906 5906 5906 5906 5906 5907 5908 5908 5908 5908 5907 5908 5908 5908 5908 5909 5910 5910 5911 5911 5912 5913 5914 5915 5915 5915 5915 5915 5915
5908 5909 5909 5910 5910 5910 5911 5912 5912 5913 5914 5915 5916 5916 5917 5918 5918 5919 5919 5920 5920 5921 5921 5921 5921 5921 5921 5920 5920 5920 5920 5919 5919 5918 5918 5919 5919 5918 5917 5917 5916 5915 5915 5913 5912 5912 5911 5911 5910 5910 5910 5909 5909 5908 5908 5908 5908 5908 5908 5908 5908 5908 5909 5909 5909 5909 5908 5909 5909 5909 5909 5909 5910 5910 5910 5911 5912 5913 5913 5914 5914 5914 5914 5915 5915
5907 5908 5909 5909 5910 5910 5911 5911 5912 5913 5913 5914 5915 5915 5916 5917 5918 5918 5918 5919 5920 5921 5921 5921 5921 5921 5920 5920 5920 5920 5920 5919 5918 5919 5918 5918 5919 5917 5917 5917 5916 5916 5915 5915 5913 5913 5913 5912 5912 5911 5911 5911 5910 5910 5910 5910 5910 5910 5909 5909 5909 5910 5909 5909 5909 5909 5909 5910 5910 5910 5910 5910 5910 5910 5910 5911 5911 5912 5912 5913 5913 5913 5914 5914 5914
5906 5907 5908 5908 5909 5910 5910 5911 5912 5912 5913 5913 5914 5915 5915 5916 5917 5918 5918 5919 5920 5920 5920 5920 5920 5920 5920 5920 5920 5920 5920 5919 5918 5919 5918 5918 5919 5918 5916 5917 5917 5916 5916 5916 5915 5914 5913 5913 5913 5912 5912 5911 5911 5911 5911 5911 5911 5911 5911 5911 5910 5910 5910 5910 5910 5910 5910 5910 5910 5910 5910 5910 5910 5910 5910 5911 5911 5912 5912 5912 5913 5913 5913 5913 5913
5904 5905 5906 5907 5908 5909 5909 5910 5911 5912 5912 5913 5913 5914 5915 5916 5916 5917 5917 5918 5919 5919 5920 5920 5920 5920 5920 5920 5919 5919 5919 5919 5919 5918 5917 5918 5919 5918 5917 5917 5917 5917 5916 5916 5916 5914 5914 5914 5913 5913 5912 5912 5912 5912 5912 5912 5912 5912 5912 5911 5911 5911 5911 5911 5911 5911 5911 5911 5911 5911 5911 5911 5911 5911 5911 5911 5912 5912 5912 5912 5913 5913 5913 5913 5913
5903 5904 5905 5906 5906 5907 5908 5909 5910 5910 5911 5912 5912 5913 5914 5915 5915 5916 5917 5917 5918 5919 5919 5919 5919 5919 5919 5919 5919 5918 5918 5918 5918 5918 5917 5918 5918 5917 5917 5917 5917 5917 5916 5916 5916 5915 5914 5914 5914 5914 5913 5913 5913 5913 5912 5912 5912 5912 5912 5912 5912 5912 5911 5911 5911 5911 5911 5911 5911 5911 5911 5911 5911 5911 5912 5912 5912 5912 5912 5912 5912 5913 5913 5913 5913
5902 5903 5904 5904 5905 5906 5907 5907 5908 5909 5910 5911 5911 5912 5913 5914 5915 5915 5916 5916 5917 5918 5918 5918 5918 5918 5918 5918 5918 5918 5918 5917 5918 5917 5917 5917 5917 5917 5916 5916 5916 5916 5916 5916 5916 5916 5915 5915 5915 5914 5914 5913 5913 5913 5913 5913 5912 5912 5913 5912 5912 5912 5912 5911 5911 5911 5911 5911 5911 5911 5911 5911 5911 5911 5912 5912 5912 5912 5912 5912 5912 5912 5912 5912 5912
5901 5902 5902 5903 5904 5904 5905 5906 5907 5908 5909 5910 5910 5911 5912 5913 5914 5914 5915 5916 5916 5917 5917 5917 5917 5918 5918 5918 5918 5917 5917 5917 5917 5917 5917 5917 5917 5916 5916 5916 5916 5916 5916 5916 5916 5916 5916 5915 5915 5915 5914 5914 5913 5913 5913 5913 5912 5912 5912 5912 5912 5912 5912 5911 5911 5910 5910 5910 5910 5911 5911 5911 5911 5912 5912 5912 5912 5912 5912 5912 5912 5912 5911 5911 5911
5900 5901 5901 5902 5902 5903 5904 5905 5906 5907 5907 5908 5909 5910 5911 5911 5912 5913 5914 5915 5915 5916 5916 5916 5916 5917 5917 5917 5917 5917 5916 5916 5916 5916 5916 5916 5916 5916 5915 5915 5915 5915 5915 5915 5915 5915 5915 5915 5915 5915 5915 5914 5913 5913 5913 5913 5913 5912 5912 5912 5912 5912 5911 5911 5910 5910 5910 5910 5910 5910 5911 5911 5911 5911 5911 5911 5911 5911 5911 5911 5911 5910 5910 5910 5910
5899 5899 5900 5900 5901 5902 5902 5903 5904 5905 5906 5907 5907 5908 5909 5910 5911 5912 5913 5914 5915 5915 5916 5916 5915 5916 5916 5916 5916 5916 5915 5915 5915 5915 5916 5915 5915 5915 5915 5915 5915 5915 5915 5914 5914 5915 5915 5915 5915 5914 5914 5914 5914 5913 5913 5913 5913 5913 5912 5912 5912 5912 5911 5911 5911 5910 5910 5910 5910 5910 5910 5910 5911 5911 5911 5911 5911 5911 5910 5910 5910 5909 5909 5909 5909
5897 5897 5898 5899 5900 5900 5901 5902 5903 5904 5905 5905 5906 5907 5908 5908 5909 5910 5911 5912 5913 5914 5915 5915 5915 5915 5915 5915 5915 5915 5914 5914 5914 5914 5914 5914 5914 5914 5914 5914 5914 5915 5914 5914 5914 5914 5915 5914 5914 5914 5914 5914 5914 5913 5913 5913 5913 5912 5912 5912 5912 5911 5911 5911 5911 5910 5910 5910 5910 5910 5910 5910 5910 5910 5910 5910 5910 5910 5909 5909 5909 5908 5908 5908 5908
5895 5896 5896 5897 5898 5899 5900 5901 5902 5902 5903 5904 5905 5905 5906 5907 5907 5908 5909 5910 5912 5912 5913 5914 5914 5914 5914 5914 5914 5914 5914 5913 5913 5913 5913 5913 5913 5913 5913 5913 5913 5914 5914 5914 5914 5914 5914 5914 5913 5913 5913 5913 5913 5913 5912 5912 5912 5912 5911 5911 5911 5911 5911 5911 5911 5911 5910 5910 5910 5910 5910 5910 5910 5909 5909 5909 5909 5909 5908 5908 5908 5907 5907 5907 5907
5894 5894 5895 5896 5897 5898 5899 5899 5900 5901 5902 5903 5903 5904 5905 5905 5906 5906 5907 5908 5909 5910 5911 5912 5913 5913 5913 5913 5913 5913 5913 5912 5912 5912 5912 5912 5912 5912 5912 5912 5912 5913 5913 5914 5914 5913 5913 5913 5913 5912 5912 5912 5911 5911 5911 5911 5911 5911 5911 5910 5910 5910 5910 5910 5910 5910 5910 5910 5910 5909 5909 5909 5909 5909 5909 5908 5908 5908 5907 5907 5906 5906 5906 5906 5906
5892 5893 5894 5894 5895 5896 5897 5898 5899 5899 5900 5901 5902 5903 5904 5904 5904 5905 5906 5906 5907 5908 5909 5910 5911 5911 5912 5912 5912 5911 5912 5911 5911 5911 5911 5911 5911 5911 5911 5911 5911 5912 5912 5913 5913 5913 5912 5912 5911 5911 5911 5911 5910 5910 5910 5910 5910 5910 5910 5909 5909 5909 5909 5909 5909 5909 5909 5909 5908 5908 5908 5908 5908 5908 5907 5907 5907 5907 5906 5906 5905 5905 5905 5904 5904
5891 5892 5892 5893 5894 5894 5895 5896 5897 5898 5898 5899 5900 5901 5902 5903 5903 5904 5904 5905 5906 5906 5907 5908 5909 5910 5910 5910 5910 5910 5910 5910 5910 5910 5910 5910 5910 5910 5910 5910 5910 5910 5911 5911 5912 5912 5911 5910 5910 5910 5910 5909 5909 5909 5908 5908 5909 5909 5908 5908 5909 5909 5908 5908 5908 5908 5908 5908 5907 5907 5907 5906 5906 5906 5906 5906 5906 5905 5905 5904 5904 5903 5903 5902 5902
5890 5891 5891 5892 5892 5893 5894 5894 5895 5896 5896 5897 5898 5899 5900 5901 5901 5902 5903 5904 5904 5905 5906 5906 5907 5908 5908 5908 5908 5908 5908 5908 5908 5908 5909 5909 5909 5909 5908 5908 5908 5909 5909 5909 5910 5910 5910 5909 5909 5909 5908 5908 5908 5907 5907 5907 5907 5907 5907 5907 5908 5908 5907 5907 5907 5907 5907 5907 5906 5906 5906 5905 5905 5905 5905 5905 5904 5904 5903 5903 5902 5902 5901 5901 5900
5889 5890 5891 5891 5891 5892 5892 5893 5893 5894 5895 5895 5896 5897 5897 5898 5899 5900 5901 5902 5902 5903 5904 5904 5905 5906 5906 5906 5906 5906 5907 5907 5906 5906 5907 5907 5907 5907 5907 5906 5906 5907 5907 5907 5907 5908 5908 5908 5907 5907 5907 5906 5906 5906 5905 5905 5906 5906 5906 5906 5906 5906 5906 5906 5906 5906 5906 5905 5905 5905 5905 5904 5904 5904 5904 5903 5903 5902 5902 5901 5901 5900 5900 5899 5898
5889 5889 5890 5891 5891 5891 5891 5892 5892 5893 5893 5894 5895 5895 5895 5896 5897 5898 5899 5900 5900 5900 5901 5902 5903 5904 5904 5904 5904 5904 5905 5905 5904 5904 5904 5904 5905 5905 5905 5905 5905 5905 5905 5905 5905 5905 5906 5906 5905 5905 5905 5905 5904 5904 5904 5904 5904 5904 5905 5905 5905 5904 5904 5904 5904 5904 5904 5904 5904 5904 5903 5903 5903 5902 5902 5901 5900 5900 5899 5899 5898 5898 5897 5897 5896
5888 5888 5889 5889 5890 5890 5891 5891 5891 5892 5892 5893 5893 5894 5894 5894 5895 5895 5896 5897 5898 5898 5898 5899 5899 5900 5901 5902 5902 5903 5903 5903 5902 5902 5902 5902 5902 5902 5902 5903 5903 5903 5903 5902 5903 5903 5903 5903 5903 5903 5903 5903 5903 5903 5902 5902 5902 5902 5903 5903 5903 5903 5903 5903 5903 5902 5902 5902 5902 5902 5901 5901 5900 5900 5899 5898 5898 5897 5897 5896 5896 5895 5895 5895 5894
5886 5887 5888 5888 5889 5889 5890 5890 5890 5891 5891 5892 5892 5892 5892 5893 5893 5894 5894 5895 5895 5895 5895 5896 5896 5897 5898 5899 5900 5900 5901 5901 5901 5900 5900 5900 5900 5900 5900 5900 5900 5901 5900 5900 5900 5900 5900 5900 5901 5901 5901 5901 5901 5901 5900 5900 5900 5900 5901 5901 5901 5901 5901 5900 5900 5900 5900 5900 5900 5900 5899 5898 5897 5897 5896 5895 5895 5894 5894 5894 5893 5893 5893 5892 5892
5885 5886 5887 5887 5888 5888 5888 5888 5889 5889 5890 5890 5891 5891 5891 5891 5892 5892 5892 5892 5893 5893 5893 5893 5893 5894 5895 5896 5897 5898 5898 5899 5899 5898 5898 5898 5898 5898 5897 5897 5898 5898 5898 5898 5898 5898 5898 5898 5898 5898 5899 5899 5899 5899 5899 5898 5898 5898 5898 5898 5898 5898 5898 5898 5897 5897 5897 5897 5897 5897 5896 5895 5894 5894 5893 5893 5892 5892 5892 5891 5891 5891 5890 5890 5889
5884 5885 5885 5886 5886 5887 5887 5887 5887 5888 5888 5889 5889 5889 5889 5889 5890 5890 5890 5890 5891 5891 5891 5891 5892 5892 5893 5893 5894 5895 5895 5896 5896 5896 5896 5896 5896 5895 5895 5894 5894 5894 5895 5895 5895 5895 5895 5895 5895 5896 5896 5896 5896 5896 5896 5896 5896 5896 5896 5896 5896 5895 5895 5894 5894 5894 5894 5894 5894 5894 5893 5892 5891 5891 5890 5890 5889 5889 5889 5889 5888 5888 5888 5887 5887
5883 5883 5884 5884 5885 5885 5885 5885 5886 5886 5887 5887 5888 5888 5888 5888 5888 5888 5888 5889 5889 5890 5890 5890 5890 5891 5891 5891 5891 5892 5892 5893 5893 5893 5893 5893 5893 5893 5892 5892 5892 5892 5892 5892 5892 5892 5893 5892 5893 5893 5893 5893 5893 5893 5893 5893 5893 5893 5893 5893 5893 5892 5891 5891 5891 5891 5891 5891 5891 5890 5890 5889 5888 5888 5887 5887 5887 5887 5887 5886 5886 5885 5884 5883 5883
5882 5882 5882 5883 5883 5883 5883 5884 5884 5884 5885 5885 5885 5886 5886 5886 5886 5886 5886 5887 5887 5888 5888 5888 5888 5888 5889 5889 5889 5889 5889 5890 5890 5890 5890 5890 5890 5890 5890 5890 5890 5890 5890 5890 5889 5889 5889 5890 5890 5890 5891 5891 5890 5890 5890 5889 5889 5890 5890 5889 5888 5888 5888 5888 5888 5888 5888 5888 5887 5886 5886 5886 5885 5885 5884 5884 5884 5883 5883 5883 5882 5881 5880 5879 5879
5881 5881 5882 5882 5882 5882 5882 5882 5882 5882 5883 5883 5883 5883 5884 5884 5884 5884 5883 5884 5885 5885 5886 5886 5886 5885 5886 5886 5886 5886 5887 5887 5887 5887 5887 5887 5887 5887 5887 5887 5887 5887 5887 5886 5886 5886 5886 5886 5887 5888 5888 5888 5887 5887 5886 5886 5887 5886 5885 5885 5885 5885 5886 5886 5885 5885 5884 5884 5883 5883 5882 5882 5882 5882 5881 5881 5880 5880 5879 5879 5878 5877 5876 5875 5875
5881 5881 5881 5881 5881 5881 5881 5881 5881 5881 5881 5881 5881 5882 5881 5881 5881 5881 5881 5881 5882 5882 5883 5883 5883 5883 5882 5883 5883 5883 5884 5884 5884 5884 5884 5884 5884 5884 5884 5884 5884 5884 5883 5883 5883 5883 5883 5883 5884 5885 5885 5884 5883 5882 5882 5883 5884 5883 5883 5883 5882 5882 5882 5881 5881 5881 5880 5880 5879 5879 5879 5879 5878 5878 5877 5877 5876 5876 5875 5875 5874 5873 5872 5872 5871
5881 5881 5881 5881 5881 5881 5881 5880 5880 5880 5880 5880 5880 5880 5880 5879 5879 5879 5879 5879 5879 5880 5880 5880 5880 5880 5880 5879 5880 5880 5880 5880 5880 5880 5880 5880 5880 5880 5880 5881 5881 5881 5880 5880 5880 5879 5879 5880 5881 5882 5882 5881 5879 5878 5879 5880 5881 5881 5881 5880 5878 5878 5877 5877 5876 5876 5876 5876 5875 5874 5875 5875 5875 5874 5873 5873 5872 5872 5871 5871 5870 5869 5868 5868 5866
5879 5879 5879 5879 5879 5879 5879 5879 5878 5878 5878 5878 5878 5878 5878 5878 5878 5877 5877 5877 5877 5877 5878 5878 5878 5877 5877 5877 5877 5876 5876 5876 5876 5875 5875 5876 5876 5876 5876 5877 5877 5877 5877 5876 5876 5875 5875 5876 5878 5879 5879 5877 5875 5874 5875 5876 5877 5877 5876 5875 5876 5875 5874 5873 5873 5873 5872 5871 5871 5870 5871 5872 5871 5870 5869 5869 5868 5868 5867 5867 5866 5865 5864 5864 5862
5877 5877 5877 5877 5877 5876 5876 5876 5876 5876 5876 5876 5876 5876 5876 5875 5875 5875 5875 5875 5875 5875 5875 5875 5875 5874 5874 5874 5874 5873 5873 5872 5871 5870 5870 5871 5873 5873 5873 5873 5873 5873 5873 5872 5872 5872 5872 5872 5875 5877 5876 5873 5870 5870 5871 5871 5871 5872 5872 5872 5872 5871 5869 5870 5870 5869 5868 5867 5867 5866 5866 5867 5867 5866 5865 5865 5864 5863 5863 5862 5862 5861 5860 5859 5858
5875 5875 5874 5874 5874 5874 5874 5874 5874 5874 5874 5874 5874 5874 5873 5873 5873 5872 5872 5872 5872 5872 5872 5872 5872 5871 5871 5870 5870 5870 5869 5868 5867 5865 5865 5867 5869 5869 5869 5869 5869 5869 5868 5867 5868 5868 5868 5868 5871 5872 5871 5868 5867 5866 5867 5867 5867 5867 5868 5868 5868 5866 5865 5866 5866 5865 5865 5864 5863 5862 5862 5862 5862 5861 5860 5860 5860 5859 5858 5858 5857 5857 5856 5854 5853
5872 5872 5872 5872 5872 5871 5871 5872 5872 5872 5871 5871 5871 5871 5870 5870 5870 5869 5869 5869 5869 5869 5869 5868 5868 5867 5867 5866 5866 5866 5866 5865 5864 5861 5861 5864 5865 5864 5863 5864 5864 5864 5863 5862 5862 5863 5864 5864 5865 5866 5865 5863 5863 5863 5862 5862 5862 5861 5862 5862 5863 5862 5861 5861 5861 5861 5860 5859 5859 5858 5857 5857 5858 5857 5856 5855 5855 5854 5854 5853 5852 5852 5850 5848 5847
5870 5870 5869 5869 5869 5869 5869 5869 5869 5869 5869 5868 5868 5868 5867 5867 5867 5866 5866 5866 5865 5865 5865 5864 5864 5863 5863 5862 5862 5862 5861 5861 5860 5858 5857 5860 5861 5859 5859 5859 5859 5859 5858 5857 5857 5857 5858 5859 5860 5861 5860 5859 5859 5858 5857 5856 5856 5856 5857 5857 5857 5857 5856 5856 5856 5855 5854 5855 5854 5853 5853 5853 5853 5852 5852 5851 5850 5849 5849 5849 5848 5846 5844 5843 5842